Location: Truman State University Observatory
(40.1787°N, 92.6006°W)
Time: 16:11:56
(UTC-06:00)

ISS - Visible Passes

Search period start: 24 November 2017 00:00
Search period end: 04 December 2017 00:00
Orbit: 401 x 407 km, 51.6° (Epoch: 25 November)

Date Brightness Start Highest point End Pass type
(mag) Time Alt. Az. Time Alt. Az. Time Alt. Az.
25 Nov -2.1 18:23:43 10° S 18:25:36 21° SSE 18:25:36 21° SSE visible
26 Nov -1.5 17:32:49 10° SSE 17:34:14 12° SE 17:35:39 10° ESE visible
26 Nov -1.4 19:07:02 10° WSW 19:08:24 23° WSW 19:08:24 23° WSW visible
27 Nov -3.8 18:14:43 10° SW 18:17:57 60° SE 18:18:26 51° E visible
28 Nov -2.6 17:22:45 10° SSW 17:25:39 29° SE 17:28:22 11° ENE visible
28 Nov -1.7 18:59:05 10° W 19:01:02 26° WNW 19:01:02 26° WNW visible
29 Nov -3.4 18:06:22 10° WSW 18:09:35 55° NNW 18:10:53 31° NNE visible
30 Nov -3.8 17:13:54 10° SW 17:17:09 77° SE 17:20:26 10° NE visible
30 Nov -1.5 18:51:28 10° WNW 18:53:20 18° NW 18:53:20 18° NW visible
01 Dec -2.3 17:58:26 10° W 18:01:19 28° NNW 18:03:03 18° NNE visible
02 Dec -1.2 18:44:03 10° NW 18:45:22 14° NNW 18:45:22 14° NNW visible
03 Dec -1.7 17:50:49 10° WNW 17:53:08 18° NNW 17:54:59 12° NNE visible
